Time,TemperatureF,DewpointF,PressureIn,WindDirection,WindDirectionDegrees,WindSpeedMPH,WindSpeedGustMPH,Humidity,HourlyPrecipIn,Conditions,Clouds,dailyrainin,SolarRadiationWatts/m^2,SoftwareType,DateUTC
2017-05-27 00:08:00,53.6,46.2,29.82,WNW,297,6.4,8.1,76,0.00,CLR,SKC,0.00,0.0,WeatherDisplay:10.37,2017-05-27 05:08:00,
2017-05-27 00:13:00,53.5,46.1,29.82,WNW,291,6.9,8.1,76,0.00,CLR,SKC,0.00,0.0,WeatherDisplay:10.37,2017-05-27 05:13:00,
2017-05-27 00:18:00,53.4,46.7,29.82,WNW,287,7.2,8.1,78,0.00,CLR,SKC,0.00,0.0,WeatherDisplay:10.37,2017-05-27 05:18:00,
2017-05-27 00:23:00,53.3,46.6,29.82,WNW,282,7.5,9.2,78,0.00,CLR,SKC,0.00,0.0,WeatherDisplay:10.37,2017-05-27 05:23:00,
2017-05-27 00:28:00,53.1,46.4,29.82,WNW,295,6.5,8.1,78,0.00,CLR,SKC,0.00,0.0,WeatherDisplay:10.37,2017-05-27 05:28:00,
2017-05-27 00:33:00,53.0,46.3,29.83,WNW,286,5.9,8.1,78,0.00,CLR,SKC,0.00,0.0,WeatherDisplay:10.37,2017-05-27 05:33:00,
2017-05-27 00:38:00,53.0,46.7,29.82,WNW,289,6.5,8.1,79,0.00,CLR,SKC,0.00,0.0,WeatherDisplay:10.37,2017-05-27 05:38:00,
2017-05-27 00:43:00,53.1,46.4,29.82,WNW,296,5.9,6.9,78,0.00,CLR,SKC,0.00,0.0,WeatherDisplay:10.37,2017-05-27 05:43:00,
2017-05-27 00:48:00,53.2,46.5,29.82,WNW,292,5.6,6.9,78,0.00,CLR,SKC,0.00,0.0,WeatherDisplay:10.37,2017-05-27 05:48:00,
2017-05-27 00:53:00,53.3,46.6,29.82,WNW,298,5.4,5.8,78,0.00,CLR,SKC,0.00,0.0,WeatherDisplay:10.37,2017-05-27 05:53:00,
2017-05-27 00:58:00,53.2,46.5,29.83,WNW,293,5.6,6.0,78,0.00,CLR,SKC,0.00,0.0,WeatherDisplay:10.37,2017-05-27 05:58:00,
2017-05-27 01:03:00,52.8,46.5,29.83,WNW,292,6.2,6.9,79,0.00,CLR,SKC,0.00,0.0,WeatherDisplay:10.37,2017-05-27 06:03:00,
2017-05-27 01:08:00,52.3,46.3,29.83,WNW,297,5.2,6.9,80,0.00,CLR,SKC,0.00,0.0,WeatherDisplay:10.37,2017-05-27 06:08:00,
2017-05-27 01:13:00,52.2,46.5,29.83,WNW,288,3.9,5.0,81,0.00,CLR,SKC,0.00,0.0,WeatherDisplay:10.37,2017-05-27 06:13:00,
2017-05-27 01:18:00,52.3,46.3,29.83,WNW,286,5.1,5.8,80,0.00,CLR,SKC,0.00,0.0,WeatherDisplay:10.37,2017-05-27 06:18:00,
2017-05-27 01:23:00,52.3,46.3,29.83,WNW,286,5.2,5.8,80,0.00,CLR,SKC,0.00,0.0,WeatherDisplay:10.37,2017-05-27 06:23:00,
2017-05-27 01:28:00,52.2,46.2,29.83,West,279,4.9,5.8,80,0.00,CLR,SKC,0.00,0.0,WeatherDisplay:10.37,2017-05-27 06:28:00,
2017-05-27 01:33:00,52.1,46.4,29.83,West,281,4.8,6.9,81,0.00,CLR,SKC,0.00,0.0,WeatherDisplay:10.37,2017-05-27 06:33:00,
2017-05-27 01:38:00,52.0,46.3,29.84,WNW,282,6.1,7.0,81,0.00,CLR,SKC,0.00,0.0,WeatherDisplay:10.37,2017-05-27 06:38:00,
2017-05-27 01:43:00,51.8,46.2,29.83,WNW,292,5.2,5.8,81,0.00,CLR,SKC,0.00,0.0,WeatherDisplay:10.37,2017-05-27 06:43:00,
2017-05-27 01:48:00,51.5,46.2,29.84,WNW,292,5.2,6.0,82,0.00,CLR,SKC,0.00,0.0,WeatherDisplay:10.37,2017-05-27 06:48:00,
2017-05-27 01:53:00,51.4,46.1,29.83,WNW,300,5.1,5.8,82,0.00,CLR,SKC,0.00,0.0,WeatherDisplay:10.37,2017-05-27 06:53:00,
2017-05-27 01:58:00,50.9,46.2,29.83,WNW,298,5.1,6.0,84,0.00,CLR,SKC,0.00,0.0,WeatherDisplay:10.37,2017-05-27 06:58:00,
2017-05-27 02:03:00,50.6,46.3,29.83,WNW,293,4.9,5.8,85,0.00,CLR,SKC,0.00,0.0,WeatherDisplay:10.37,2017-05-27 07:03:00,
2017-05-27 02:08:00,50.5,46.2,29.83,WNW,290,4.8,5.8,85,0.00,CLR,SKC,0.00,0.0,WeatherDisplay:10.37,2017-05-27 07:08:00,
2017-05-27 02:13:00,50.3,46.0,29.83,WNW,294,5.3,6.0,85,0.00,CLR,SKC,0.00,0.0,WeatherDisplay:10.37,2017-05-27 07:13:00,
2017-05-27 02:18:00,50.1,45.8,29.83,WNW,288,4.4,5.8,85,0.00,CLR,SKC,0.00,0.0,WeatherDisplay:10.37,2017-05-27 07:18:00,
2017-05-27 02:23:00,49.9,45.9,29.84,West,277,4.3,4.6,86,0.00,CLR,SKC,0.00,0.0,WeatherDisplay:10.37,2017-05-27 07:23:00,
2017-05-27 02:28:00,49.7,45.7,29.84,WNW,291,4.6,5.0,86,0.00,CLR,SKC,0.00,0.0,WeatherDisplay:10.37,2017-05-27 07:28:00,
2017-05-27 02:33:00,49.2,45.5,29.83,WNW,289,5.1,5.8,87,0.00,CLR,SKC,0.00,0.0,WeatherDisplay:10.37,2017-05-27 07:33:00,
2017-05-27 02:38:00,49.1,46.0,29.83,WNW,298,6.2,7.0,89,0.00,CLR,SKC,0.00,0.0,WeatherDisplay:10.37,2017-05-27 07:38:00,
2017-05-27 02:43:00,49.1,46.0,29.83,WNW,301,6.0,7.0,89,0.00,CLR,SKC,0.00,0.0,WeatherDisplay:10.37,2017-05-27 07:43:00,
2017-05-27 02:48:00,48.8,46.0,29.83,NW,305,5.2,6.0,90,0.00,CLR,SKC,0.00,0.0,WeatherDisplay:10.37,2017-05-27 07:48:00,
2017-05-27 02:53:00,48.5,45.7,29.83,WNW,297,4.9,5.8,90,0.00,CLR,SKC,0.00,0.0,WeatherDisplay:10.37,2017-05-27 07:53:00,
2017-05-27 02:58:00,48.4,45.6,29.83,WNW,295,4.5,4.6,90,0.00,CLR,SKC,0.00,0.0,WeatherDisplay:10.37,2017-05-27 07:58:00,
2017-05-27 03:03:00,48.1,45.3,29.83,WNW,289,3.5,4.6,90,0.00,CLR,SKC,0.00,0.0,WeatherDisplay:10.37,2017-05-27 08:03:00,
2017-05-27 03:08:00,47.8,45.0,29.84,West,277,3.5,5.0,90,0.00,CLR,SKC,0.00,0.0,WeatherDisplay:10.37,2017-05-27 08:08:00,
2017-05-27 03:13:00,47.7,45.2,29.83,WNW,283,3.1,4.0,91,0.00,CLR,SKC,0.00,0.0,WeatherDisplay:10.37,2017-05-27 08:13:00,
2017-05-27 03:18:00,47.7,45.2,29.84,WNW,286,3.0,3.5,91,0.00,CLR,SKC,0.00,0.0,WeatherDisplay:10.37,2017-05-27 08:18:00,
2017-05-27 03:23:00,47.8,45.6,29.83,WNW,286,1.4,2.3,92,0.00,CLR,SKC,0.00,0.0,WeatherDisplay:10.37,2017-05-27 08:23:00,
2017-05-27 03:28:00,47.9,45.7,29.83,WNW,286,1.7,2.3,92,0.00,CLR,SKC,0.00,0.0,WeatherDisplay:10.37,2017-05-27 08:28:00,
2017-05-27 03:33:00,47.8,45.6,29.84,WNW,286,1.3,2.3,92,0.00,CLR,SKC,0.00,0.0,WeatherDisplay:10.37,2017-05-27 08:33:00,
2017-05-27 03:38:00,47.7,45.5,29.84,WNW,286,1.4,2.3,92,0.00,CLR,SKC,0.00,0.0,WeatherDisplay:10.37,2017-05-27 08:38:00,
2017-05-27 03:43:00,47.9,46.3,29.84,WNW,286,2.1,3.0,94,0.00,CLR,SKC,0.00,0.0,WeatherDisplay:10.37,2017-05-27 08:43:00,
2017-05-27 03:48:00,47.7,46.1,29.83,WNW,286,2.8,3.5,94,0.00,CLR,SKC,0.00,0.0,WeatherDisplay:10.37,2017-05-27 08:48:00,
2017-05-27 03:53:00,47.4,45.8,29.84,West,277,3.1,4.0,94,0.00,CLR,SKC,0.00,0.0,WeatherDisplay:10.37,2017-05-27 08:53:00,
2017-05-27 03:58:00,46.9,45.3,29.84,West,271,3.5,4.0,94,0.00,CLR,SKC,0.00,0.0,WeatherDisplay:10.37,2017-05-27 08:58:00,
2017-05-27 04:03:00,46.4,44.8,29.84,West,269,3.8,4.0,94,0.00,CLR,SKC,0.00,0.0,WeatherDisplay:10.37,2017-05-27 09:03:00,
2017-05-27 04:08:00,46.2,44.6,29.84,West,263,4.3,5.0,94,0.00,CLR,SKC,0.00,0.0,WeatherDisplay:10.37,2017-05-27 09:08:00,
2017-05-27 04:13:00,45.9,44.5,29.84,West,260,4.4,4.6,95,0.00,CLR,SKC,0.00,0.0,WeatherDisplay:10.37,2017-05-27 09:13:00,
2017-05-27 04:18:00,45.7,44.4,29.84,WSW,255,4.6,5.8,95,0.00,CLR,SKC,0.00,0.0,WeatherDisplay:10.37,2017-05-27 09:18:00,
2017-05-27 04:23:00,45.5,44.2,29.85,WSW,254,5.4,6.0,95,0.00,CLR,SKC,0.00,0.0,WeatherDisplay:10.37,2017-05-27 09:23:00,
2017-05-27 04:28:00,45.5,44.4,29.85,WSW,257,4.9,5.8,96,0.00,CLR,SKC,0.00,0.0,WeatherDisplay:10.37,2017-05-27 09:28:00,
2017-05-27 04:33:00,45.6,44.5,29.85,West,261,4.5,5.8,96,0.00,CLR,SKC,0.00,0.0,WeatherDisplay:10.37,2017-05-27 09:33:00,
2017-05-27 04:38:00,45.8,44.7,29.85,West,265,4.3,5.0,96,0.00,CLR,SKC,0.00,0.0,WeatherDisplay:10.37,2017-05-27 09:38:00,
2017-05-27 04:43:00,46.1,45.3,29.85,West,271,4.8,4.8,97,0.00,CLR,SKC,0.00,0.0,WeatherDisplay:10.37,2017-05-27 09:43:00,
2017-05-27 04:48:00,46.3,45.5,29.85,West,269,4.7,5.8,97,0.00,CLR,SKC,0.00,0.0,WeatherDisplay:10.37,2017-05-27 09:48:00,
2017-05-27 04:52:00,46.2,45.1,29.85,West,267,4.7,5.8,96,0.00,CLR,SKC,0.00,0.0,WeatherDisplay:10.37,2017-05-27 09:52:00,
2017-05-27 04:57:00,46.2,45.1,29.85,West,271,4.7,5.0,96,0.00,CLR,SKC,0.00,0.0,WeatherDisplay:10.37,2017-05-27 09:57:00,
2017-05-27 05:02:00,46.5,45.4,29.85,West,263,4.7,6.9,96,0.00,OVC,SKC,0.00,0.0,WeatherDisplay:10.37,2017-05-27 10:02:00,
2017-05-27 05:07:00,46.7,45.6,29.85,West,278,4.5,5.8,96,0.00,OVC,SKC,0.00,0.0,WeatherDisplay:10.37,2017-05-27 10:07:00,
2017-05-27 05:12:00,46.6,45.5,29.85,West,277,4.3,5.0,96,0.00,OVC,SKC,0.00,0.0,WeatherDisplay:10.37,2017-05-27 10:12:00,
2017-05-27 05:17:00,46.2,45.1,29.85,West,272,3.2,3.5,96,0.00,OVC,SKC,0.00,0.0,WeatherDisplay:10.37,2017-05-27 10:17:00,
2017-05-27 05:22:00,46.1,45.0,29.85,West,272,2.7,3.5,96,0.00,OVC,SKC,0.00,0.0,WeatherDisplay:10.37,2017-05-27 10:22:00,
2017-05-27 05:27:00,46.0,44.9,29.85,West,272,2.3,3.5,96,0.00,OVC,SKC,0.00,0.0,WeatherDisplay:10.37,2017-05-27 10:27:00,
2017-05-27 05:32:00,46.0,44.9,29.85,West,272,2.9,3.5,96,0.00,OVC,SKC,0.00,0.0,WeatherDisplay:10.37,2017-05-27 10:32:00,
2017-05-27 05:37:00,45.8,44.7,29.85,West,273,3.0,3.5,96,0.00,OVC,SKC,0.00,0.0,WeatherDisplay:10.37,2017-05-27 10:37:00,
2017-05-27 05:42:00,45.8,44.7,29.85,West,272,2.9,3.5,96,0.00,OVC,SKC,0.00,7.0,WeatherDisplay:10.37,2017-05-27 10:42:00,
2017-05-27 05:47:00,46.0,44.9,29.86,West,271,3.0,3.5,96,0.00,OVC,SKC,0.00,11.0,WeatherDisplay:10.37,2017-05-27 10:47:00,
2017-05-27 05:52:00,46.1,45.3,29.85,West,271,2.6,3.5,97,0.00,OVC,SKC,0.00,11.0,WeatherDisplay:10.37,2017-05-27 10:52:00,
2017-05-27 05:57:00,45.9,44.8,29.85,West,271,3.0,4.0,96,0.00,OVC,SKC,0.00,14.0,WeatherDisplay:10.37,2017-05-27 10:57:00,
2017-05-27 06:02:00,45.4,44.3,29.85,West,271,2.3,3.5,96,0.00,OVC,SKC,0.00,16.0,WeatherDisplay:10.37,2017-05-27 11:02:00,
2017-05-27 06:08:00,45.2,44.1,29.85,WNW,283,2.0,3.5,96,0.00,OVC,SKC,0.00,18.0,WeatherDisplay:10.37,2017-05-27 11:08:00,
2017-05-27 06:13:00,45.3,44.2,29.85,WNW,283,2.3,3.5,96,0.00,OVC,SKC,0.00,19.0,WeatherDisplay:10.37,2017-05-27 11:13:00,
2017-05-27 06:18:00,45.6,44.8,29.85,West,277,2.2,3.5,97,0.00,OVC,SKC,0.00,21.0,WeatherDisplay:10.37,2017-05-27 11:18:00,
2017-05-27 06:23:00,45.9,45.1,29.85,West,277,2.1,3.5,97,0.00,OVC,SKC,0.00,23.0,WeatherDisplay:10.37,2017-05-27 11:23:00,
2017-05-27 06:28:00,46.1,45.3,29.85,West,277,2.4,3.5,97,0.00,OVC,SKC,0.00,23.0,WeatherDisplay:10.37,2017-05-27 11:28:00,
2017-05-27 06:33:00,46.3,45.5,29.85,West,278,1.7,3.5,97,0.00,OVC,SKC,0.00,25.0,WeatherDisplay:10.37,2017-05-27 11:33:00,
2017-05-27 06:38:00,46.4,45.6,29.85,West,280,1.4,2.3,97,0.00,OVC,SKC,0.00,28.0,WeatherDisplay:10.37,2017-05-27 11:38:00,
2017-05-27 06:43:00,46.7,45.9,29.85,West,280,1.8,2.3,97,0.00,OVC,SKC,0.00,42.0,WeatherDisplay:10.37,2017-05-27 11:43:00,
2017-05-27 06:48:00,47.1,46.3,29.85,West,281,1.1,2.3,97,0.00,OVC,SKC,0.00,53.0,WeatherDisplay:10.37,2017-05-27 11:48:00,
2017-05-27 06:53:00,47.8,47.5,29.85,West,267,1.8,3.5,99,0.00,BKN,SKC,0.00,65.0,WeatherDisplay:10.37,2017-05-27 11:53:00,
2017-05-27 06:58:00,48.4,48.1,29.85,WNW,284,2.3,3.5,99,0.00,BKN,SKC,0.00,70.0,WeatherDisplay:10.37,2017-05-27 11:58:00,
2017-05-27 07:03:00,48.7,47.9,29.85,West,281,1.9,3.5,97,0.00,BKN,SKC,0.00,49.0,WeatherDisplay:10.37,2017-05-27 12:03:00,
2017-05-27 07:08:00,49.4,48.6,29.86,West,268,1.8,2.3,97,0.00,BKN,SKC,0.00,49.0,WeatherDisplay:10.37,2017-05-27 12:08:00,
2017-05-27 07:13:00,50.0,48.9,29.86,West,268,1.8,3.0,96,0.00,BKN,SKC,0.00,46.0,WeatherDisplay:10.37,2017-05-27 12:13:00,
2017-05-27 07:18:00,50.6,49.2,29.87,West,259,3.6,4.6,95,0.00,BKN,SKC,0.00,93.0,WeatherDisplay:10.37,2017-05-27 12:18:00,
2017-05-27 07:23:00,50.9,49.5,29.87,WNW,287,4.0,5.8,95,0.00,BKN,SKC,0.00,49.0,WeatherDisplay:10.37,2017-05-27 12:23:00,
2017-05-27 07:28:00,51.4,50.0,29.87,West,278,4.8,8.1,95,0.00,BKN,SKC,0.00,160.0,WeatherDisplay:10.37,2017-05-27 12:28:00,
2017-05-27 07:33:00,52.0,50.3,29.87,WNW,292,3.4,5.8,94,0.00,BKN,SKC,0.00,91.0,WeatherDisplay:10.37,2017-05-27 12:33:00,
2017-05-27 07:38:00,52.8,51.1,29.88,West,278,4.1,5.0,94,0.00,BKN,SKC,0.00,97.0,WeatherDisplay:10.37,2017-05-27 12:38:00,
2017-05-27 07:43:00,53.4,50.5,29.87,West,281,5.3,5.8,90,0.00,BKN,SKC,0.00,135.0,WeatherDisplay:10.37,2017-05-27 12:43:00,
2017-05-27 07:48:00,54.2,51.3,29.87,West,279,4.4,4.6,90,0.00,BKN,SKC,0.00,192.0,WeatherDisplay:10.37,2017-05-27 12:48:00,
2017-05-27 07:53:00,55.0,51.2,29.87,West,275,4.7,5.8,87,0.00,SCT,SKC,0.00,257.0,WeatherDisplay:10.37,2017-05-27 12:53:00,
2017-05-27 07:58:00,55.8,51.0,29.87,WNW,287,4.7,4.7,84,0.00,SCT,SKC,0.00,272.0,WeatherDisplay:10.37,2017-05-27 12:58:00,
2017-05-27 08:03:00,56.6,51.8,29.87,WNW,293,4.6,5.0,84,0.00,SCT,SKC,0.00,274.0,WeatherDisplay:10.37,2017-05-27 13:03:00,
2017-05-27 08:08:00,57.2,52.4,29.87,WNW,294,3.8,4.6,84,0.00,SCT,SKC,0.00,274.0,WeatherDisplay:10.37,2017-05-27 13:08:00,
2017-05-27 08:13:00,57.7,51.9,29.87,WNW,289,3.3,4.6,81,0.00,SCT,SKC,0.00,276.0,WeatherDisplay:10.37,2017-05-27 13:13:00,
2017-05-27 08:18:00,58.2,52.1,29.87,West,281,3.2,3.5,80,0.00,SCT,SKC,0.00,295.0,WeatherDisplay:10.37,2017-05-27 13:18:00,
2017-05-27 08:23:00,58.7,52.5,29.87,WSW,254,2.4,3.5,80,0.00,SCT,SKC,0.00,316.0,WeatherDisplay:10.37,2017-05-27 13:23:00,
2017-05-27 08:27:00,59.0,51.8,29.87,WSW,258,3.0,5.0,77,0.00,SCT,SKC,0.00,297.0,WeatherDisplay:10.37,2017-05-27 13:27:00,
2017-05-27 08:32:00,59.2,50.5,29.87,West,280,5.0,5.8,73,0.00,SCT,SKC,0.00,360.0,WeatherDisplay:10.37,2017-05-27 13:32:00,
2017-05-27 08:37:00,59.7,52.1,29.87,West,274,2.0,6.0,76,0.00,SCT,SKC,0.00,380.0,WeatherDisplay:10.37,2017-05-27 13:37:00,
2017-05-27 08:42:00,60.4,52.8,29.87,West,281,1.7,3.5,76,0.00,SCT,SKC,0.00,367.0,WeatherDisplay:10.37,2017-05-27 13:42:00,
2017-05-27 08:47:00,60.8,52.1,29.88,SW,234,3.6,4.0,73,0.00,SCT,SKC,0.00,283.0,WeatherDisplay:10.37,2017-05-27 13:47:00,
2017-05-27 08:52:00,61.0,52.3,29.88,West,259,4.3,5.0,73,0.00,SCT,SKC,0.00,255.0,WeatherDisplay:10.37,2017-05-27 13:52:00,
2017-05-27 08:57:00,61.0,51.5,29.88,WSW,256,3.7,4.6,71,0.00,SCT,SKC,0.00,318.0,WeatherDisplay:10.37,2017-05-27 13:57:00,
2017-05-27 09:02:00,61.1,52.0,29.87,SW,236,2.9,4.0,72,0.00,SCT,SKC,0.00,397.0,WeatherDisplay:10.37,2017-05-27 14:02:00,
2017-05-27 09:07:00,61.5,52.4,29.88,West,263,4.6,5.8,72,0.00,SCT,SKC,0.00,410.0,WeatherDisplay:10.37,2017-05-27 14:07:00,
2017-05-27 09:12:00,61.8,51.1,29.88,WSW,250,3.2,4.6,68,0.00,SCT,SKC,0.00,320.0,WeatherDisplay:10.37,2017-05-27 14:12:00,
2017-05-27 09:17:00,62.0,51.7,29.88,West,263,4.3,4.6,69,0.00,SCT,SKC,0.00,313.0,WeatherDisplay:10.37,2017-05-27 14:17:00,
2017-05-27 09:22:00,62.1,49.8,29.88,WSW,246,7.0,9.2,64,0.00,SCT,SKC,0.00,508.0,WeatherDisplay:10.37,2017-05-27 14:22:00,
2017-05-27 09:27:00,62.5,50.6,29.88,WSW,252,5.4,6.9,65,0.00,SCT,SKC,0.00,413.0,WeatherDisplay:10.37,2017-05-27 14:27:00,
2017-05-27 09:32:00,62.9,50.5,29.88,West,263,5.1,8.1,64,0.00,SCT,SKC,0.00,571.0,WeatherDisplay:10.37,2017-05-27 14:32:00,
2017-05-27 09:37:00,63.5,51.9,29.88,WNW,285,4.9,6.9,66,0.00,FEW,SKC,0.00,418.0,WeatherDisplay:10.37,2017-05-27 14:37:00,
2017-05-27 09:42:00,64.0,49.4,29.88,WSW,243,3.1,5.8,59,0.00,FEW,SKC,0.00,394.0,WeatherDisplay:10.37,2017-05-27 14:42:00,
2017-05-27 09:47:00,64.3,50.1,29.88,WSW,251,4.3,5.8,60,0.00,SCT,SKC,0.00,329.0,WeatherDisplay:10.37,2017-05-27 14:47:00,
2017-05-27 09:48:00,64.3,49.7,29.88,WSW,252,4.3,6.0,59,0.00,SCT,SKC,0.00,332.0,WeatherDisplay:10.37,2017-05-27 14:48:00,
2017-05-27 09:53:00,64.2,50.5,29.88,WSW,241,6.3,9.0,61,0.00,SCT,SKC,0.00,336.0,WeatherDisplay:10.37,2017-05-27 14:53:00,
2017-05-27 10:03:00,64.0,49.4,29.88,WSW,253,5.2,9.2,59,0.00,SCT,SKC,0.00,330.0,WeatherDisplay:10.37,2017-05-27 15:03:00,
2017-05-27 10:04:00,64.0,49.4,29.88,WSW,251,5.6,6.9,59,0.00,SCT,SKC,0.00,339.0,WeatherDisplay:10.37,2017-05-27 15:04:00,
2017-05-27 10:09:00,64.1,49.9,29.88,West,262,6.3,9.2,60,0.00,SCT,SKC,0.00,564.0,WeatherDisplay:10.37,2017-05-27 15:09:00,
2017-05-27 10:14:00,64.6,52.1,29.88,West,261,3.9,5.8,64,0.00,SCT,SKC,0.00,425.0,WeatherDisplay:10.37,2017-05-27 15:14:00,
2017-05-27 10:19:00,64.9,48.8,29.88,WSW,254,6.9,8.1,56,0.00,SCT,SKC,0.00,445.0,WeatherDisplay:10.37,2017-05-27 15:19:00,
2017-05-27 10:24:00,65.0,49.4,29.87,WSW,245,6.7,11.0,57,0.00,SCT,SKC,0.00,446.0,WeatherDisplay:10.37,2017-05-27 15:24:00,
2017-05-27 10:29:00,65.0,49.9,29.87,SW,217,6.0,8.1,58,0.00,SCT,SKC,0.00,541.0,WeatherDisplay:10.37,2017-05-27 15:29:00,
2017-05-27 10:34:00,65.4,48.3,29.87,WSW,240,6.2,8.1,54,0.00,SCT,SKC,0.00,568.0,WeatherDisplay:10.37,2017-05-27 15:34:00,
2017-05-27 10:39:00,65.7,49.1,29.87,West,263,7.2,9.2,55,0.00,SCT,SKC,0.00,554.0,WeatherDisplay:10.37,2017-05-27 15:39:00,
2017-05-27 10:44:00,66.0,50.3,29.87,West,277,3.9,9.2,57,0.00,SCT,SKC,0.00,469.0,WeatherDisplay:10.37,2017-05-27 15:44:00,
2017-05-27 10:49:00,66.0,51.3,29.87,WSW,254,8.2,11.5,59,0.00,SCT,SKC,0.00,403.0,WeatherDisplay:10.37,2017-05-27 15:49:00,
2017-05-27 10:54:00,66.0,51.3,29.87,West,264,7.4,10.4,59,0.00,SCT,SKC,0.00,376.0,WeatherDisplay:10.37,2017-05-27 15:54:00,
2017-05-27 10:59:00,65.8,49.7,29.87,WSW,256,7.6,9.2,56,0.00,SCT,SKC,0.00,404.0,WeatherDisplay:10.37,2017-05-27 15:59:00,
2017-05-27 11:04:00,65.6,51.8,29.87,West,273,6.9,10.4,61,0.00,SCT,SKC,0.00,383.0,WeatherDisplay:10.37,2017-05-27 16:04:00,
2017-05-27 11:09:00,65.6,50.4,29.87,SW,236,7.9,9.2,58,0.00,SCT,SKC,0.00,367.0,WeatherDisplay:10.37,2017-05-27 16:09:00,
2017-05-27 11:14:00,65.4,48.8,29.87,WSW,254,5.7,8.1,55,0.00,BKN,SKC,0.00,383.0,WeatherDisplay:10.37,2017-05-27 16:14:00,
2017-05-27 11:19:00,65.4,49.3,29.87,WSW,257,7.4,9.2,56,0.00,BKN,SKC,0.00,401.0,WeatherDisplay:10.37,2017-05-27 16:19:00,
2017-05-27 11:24:00,65.6,49.5,29.87,WSW,239,7.4,9.2,56,0.00,BKN,SKC,0.00,417.0,WeatherDisplay:10.37,2017-05-27 16:24:00,
2017-05-27 11:29:00,65.6,50.9,29.87,WSW,251,4.7,6.0,59,0.00,BKN,SKC,0.00,413.0,WeatherDisplay:10.37,2017-05-27 16:29:00,
2017-05-27 11:34:00,65.8,50.6,29.87,West,259,5.5,8.1,58,0.00,SCT,SKC,0.00,490.0,WeatherDisplay:10.37,2017-05-27 16:34:00,